Weather History for KRNT - April, 2012

Change the Weather History Date:

Wednesday, April 25, 2012

  Actual Average (KSEA) Record (KSEA)
Temperature  
Mean Temperature 56 °F 52 °F  
Max Temperature 63 °F 60 °F 77 °F (1992)
Min Temperature 50 °F 43 °F 34 °F (1948)
Degree Days  
Heating Degree Days 9 13  
Month to date heating degree days 376  
Since 1 July heating degree days 4204  
Cooling Degree Days 0 0  
Month to date cooling degree days 0  
Year to date cooling degree days 0  
Growing Degree Days 6 (Base 50)    
Moisture  
Dew Point 52 °F    
Average Humidity 93    
Maximum Humidity 100    
Minimum Humidity 72    
Precipitation  
Precipitation 0.38 in 0.07 in 0.52 in (2011)
Month to date precipitation 2.34  
Year to date precipitation 15.13  
Snow  
Snow 0.00 in - - ()
Month to date snowfall  
Since 1 July snowfall  
Snow Depth -    
Sea Level Pressure  
Sea Level Pressure 29.76 in    
Wind  
Wind Speed 1 mph (ESE)    
Max Wind Speed 10 mph    
Max Gust Speed -    
Visibility 8 miles    
Events Rain    
T = Trace of Precipitation, MM = Missing Value Source: NWS Daily Summary

Daily Weather History Graph

Daily Weather History Graph

Search for Another Location

Airport or City:

Trip Planner

Search our weather history database for the weather conditions in past years. The results will help you decide how hot, cold, wet, or windy it might be!

Date:

Astronomy

Apr. 25, 2012 Rise Set
Actual Time 6:01 AM PDT 8:13 PM PDT
Civil Twilight 5:27 AM PDT 8:46 PM PDT
Nautical Twilight 4:45 AM PDT 9:28 PM PDT
Astronomical Twilight 3:59 AM PDT 10:16 PM PDT
Moon 8:40 AM PDT (4/25) No Moon Set
Length of Visible Light 15h 19m
Length of Day
14h 12m
Waxing Crescent, 17% of the Moon is Illuminated
Apr 25
Waxing Crescent
Apr 29
First Quarter
May 5
Full
May 12
Last Quarter
May 20
New

Hourly Weather History & Observations

Time (PDT) Temp. Dew Point Humidity Pressure Visibility Wind Dir Wind Speed Gust Speed Precip Events Conditions
12:22 AM 55.4 °F 53.6 °F 94% 29.83 in 7.0 mi Calm Calm - 0.01 in Rain Light Rain
12:44 AM 53.6 °F 53.6 °F 100% 29.83 in 4.0 mi Calm Calm - N/A Rain Light Rain
12:53 AM 54.0 °F 53.1 °F 97% 29.84 in 4.0 mi Calm Calm - 0.01 in Rain Light Rain
1:02 AM 53.6 °F 53.6 °F 100% 29.82 in 6.0 mi Calm Calm - 0.00 in Rain Light Rain
1:04 AM 53.6 °F 53.6 °F 100% 29.82 in 6.0 mi Calm Calm - 0.00 in Rain Light Rain
1:06 AM 53.6 °F 53.6 °F 100% 29.82 in 6.0 mi Calm Calm - N/A Rain Light Rain
1:16 AM 53.6 °F 53.6 °F 100% 29.82 in 6.0 mi ENE 4.6 mph - 0.01 in   Overcast
1:23 AM 55.4 °F 53.6 °F 94% 29.82 in 8.0 mi Calm Calm - 0.01 in   Overcast
1:41 AM 53.6 °F 53.6 °F 100% 29.82 in 7.0 mi Calm Calm - 0.01 in   Overcast
1:53 AM 54.0 °F 53.1 °F 97% 29.83 in 9.0 mi Calm Calm - 0.01 in   Overcast
2:26 AM 53.6 °F 53.6 °F 100% 29.82 in 10.0 mi Calm Calm - N/A   Overcast
2:35 AM 53.6 °F 51.8 °F 94% 29.82 in 10.0 mi West 4.6 mph - N/A   Overcast
2:53 AM 53.1 °F 51.1 °F 93% 29.83 in 10.0 mi WSW 4.6 mph - N/A   Overcast
3:28 AM 53.6 °F 51.8 °F 94% 29.82 in 9.0 mi Calm Calm - N/A   Overcast
3:36 AM 53.6 °F 51.8 °F 94% 29.82 in 10.0 mi Calm Calm - N/A   Overcast
3:45 AM 53.6 °F 51.8 °F 94% 29.82 in 10.0 mi Calm Calm - N/A   Overcast
3:53 AM 53.1 °F 51.1 °F 93% 29.84 in 10.0 mi Calm Calm - N/A   Overcast
3:58 AM 53.6 °F 51.8 °F 94% 29.82 in 10.0 mi Calm Calm - N/A   Overcast
4:53 AM 53.1 °F 51.1 °F 93% 29.83 in 10.0 mi Calm Calm - N/A   Overcast
5:17 AM 53.6 °F 51.8 °F 94% 29.81 in 10.0 mi Calm Calm - N/A   Overcast
5:53 AM 52.0 °F 51.1 °F 97% 29.82 in 10.0 mi Calm Calm - N/A   Overcast
6:12 AM 51.8 °F 51.8 °F 100% 29.80 in 10.0 mi Calm Calm - N/A   Overcast
6:26 AM 51.8 °F 51.8 °F 100% 29.80 in 10.0 mi NW 3.5 mph - N/A   Overcast
6:34 AM 53.6 °F 51.8 °F 94% 29.80 in 10.0 mi North 3.5 mph - N/A   Overcast
6:53 AM 53.1 °F 51.1 °F 93% 29.81 in 10.0 mi Calm Calm - N/A   Overcast
7:53 AM 53.1 °F 51.1 °F 93% 29.81 in 10.0 mi NNW 3.5 mph - 0.00 in   Overcast
8:53 AM 53.1 °F 52.0 °F 96% 29.80 in 10.0 mi Calm Calm - N/A   Overcast
9:53 AM 55.0 °F 52.0 °F 89% 29.78 in 10.0 mi Calm Calm - 0.00 in   Overcast
10:53 AM 55.9 °F 53.1 °F 90% 29.78 in 10.0 mi ESE 4.6 mph - 0.00 in Rain Light Rain
11:53 AM 57.2 °F 53.6 °F 88% 29.74 in 10.0 mi SE 3.5 mph - N/A   Overcast
12:53 PM 59.0 °F 53.1 °F 81% 29.74 in 10.0 mi ESE 3.5 mph - 0.01 in Rain Light Rain
1:53 PM 59.0 °F 55.0 °F 87% 29.73 in 10.0 mi ESE 3.5 mph - 0.00 in   Overcast
2:53 PM 59.0 °F 54.0 °F 83% 29.71 in 10.0 mi East 8.1 mph - 0.00 in   Overcast
3:53 PM 60.1 °F 54.0 °F 80% 29.68 in 10.0 mi East 4.6 mph - N/A   Overcast
4:53 PM 62.1 °F 53.1 °F 72% 29.64 in 10.0 mi Calm Calm - 0.00 in   Overcast
5:53 PM 60.1 °F 54.0 °F 80% 29.62 in 10.0 mi WNW 10.4 mph - N/A   Overcast
6:07 PM 59.0 °F 53.6 °F 82% 29.64 in 1.5 mi Variable 5.8 mph - 0.10 in Rain Rain
6:17 PM 57.2 °F 53.6 °F 88% 29.64 in 4.0 mi Calm Calm - 0.11 in Rain Light Rain
6:53 PM 55.9 °F 53.1 °F 90% 29.66 in 2.5 mi Calm Calm - 0.15 in Rain Light Rain
7:01 PM 55.4 °F 53.6 °F 94% 29.65 in 3.0 mi Calm Calm - 0.02 in Rain Rain
7:34 PM 55.4 °F 53.6 °F 94% 29.64 in 10.0 mi South 3.5 mph - 0.02 in   Overcast
7:53 PM 55.0 °F 53.1 °F 93% 29.65 in 10.0 mi Calm Calm - 0.02 in   Overcast
8:53 PM 55.0 °F 54.0 °F 96% 29.66 in 7.0 mi Calm Calm - 0.02 in Rain Light Rain
9:30 PM 55.4 °F 51.8 °F 88% 29.65 in 10.0 mi SW 5.8 mph - 0.02 in Rain Light Rain
9:53 PM 53.1 °F 50.0 °F 89% 29.67 in 6.0 mi Variable 6.9 mph - 0.06 in Rain Light Rain
10:53 PM 50.0 °F 48.0 °F 93% 29.68 in 6.0 mi Variable 3.5 mph - 0.04 in Rain Light Rain
11:48 PM 50.0 °F 48.2 °F 94% 29.65 in 7.0 mi Calm Calm - 0.05 in Rain Light Rain
11:53 PM 50.0 °F 48.0 °F 93% 29.66 in 10.0 mi Calm Calm - 0.06 in Rain Light Rain